Погода в Борисове

Погода в Борисове : погода сейчас, прогноз погоды и архив. Всё, что Вы хотите узнать о погоде в Борисове!

Хотите узнать прогноз погоды в Борисове? Тогда Вам сюда: Погода в Борисове

Поиск расширенной информации на нашем сайте:

Другие новости

Новости СМИ2

Главная страница сайта

Новости сайта

03.07.2017

Напоминаем, что на нашем специализированном сайте Метеоцентр.Азия вы можете получить высокодетализированные автоматические прогнозы погоды по пунктам России, СНГ и мира в авиационном формате (включающие направление и скорость ветра, видимость, явления погоды, количество и форму облачности, нижнюю и верхнюю границу облачности).


Погода в Борисове - сегодня

Время (UTC), дата Ветер
(°,м/с) 
Видим.   Явления Облачность Т
(°С)
Тd
(°С)
f(%) Тe
(°С)
Pmin
(гПа)
dP
(гПа)
Po
(мм)
O2
(г/м3)
Тmin Tmax R s Состояние
почвы
12 18.09.17 190 (Ю) 8-17{17}  28000 м  слаб. ливневой дождь  10/10 600 м кучево-дожд. 
[Cb calv]
+12.7 +8.9 78 +11  1001.1  0.2  734  281      0.0     
18 18.09.17 210 (ЮЗ) 6-13{16}  35000 м  {ливн. осадки}  10/10 420 м 
[Frnb]
+11.8 +9.4 85 +12  1000.5  734  282    +15.7  0.5     
00 19.09.17 230 (ЮЗ) 5-11{14}  28000 м  {ливн. осадки}  10/10 870 м 
[Sc]
+10.1 +7.5 84 +9  1007.6  3.8  739  286      0.1     
03 19.09.17 230 (ЮЗ) 3{12}  35000 м  {ливн. осадки}  1/1 600 м 
[Sc]
+9.3 +6.7 84 +9  1010.8  741  288      0.4     
06 19.09.17 230 (ЮЗ) 35000 м  {ливн. осадки}  9/9 570 м 
[Frnb]
+10.4 +7.6 83 +10  1013.5  2.8  743  287  +8.8    0.4     
09 19.09.17 260 (З) 35000 м    8/8 750 м 
[Sc]
+13.6 +8.3 70 +13  1015.4  2.1  745  284           
12 19.09.17 230 (ЮЗ) 2{10}  35000 м    9/9 750 м 
[Sc]
+14.2 +8.7 69 +15  1017  1.6  746  284           
15 19.09.17 220 (ЮЗ) 35000 м    8/1 800 м верхняя 
[Sc|Ci fib]
+14.9 +8.3 65 +16  1017.4  0.5  746  284           
18 19.09.17 тихо ()   15000 м    ясно 
+10.2 +8.8 91 +10  1018.8  0.9  747  289    +15.5       
21 19.09.17 тихо ()   13000 м    ясно 
+9.1 +8.4 95 +9  1019.8  0.9  748  290           
00 20.09.17 тихо ()   14000 м    ясно 
+8 +7.5 97 +8  1020  0.1  748  291           
03 20.09.17 040 (СВ) 13000 м    10/10 600 м 
[Sc]
+8 +7.3 95 +9  1020.1  0.1  748  291           
06 20.09.17 040 (СВ) 27000 м    10/10 600 м кучево-дожд. 
[Cb calv]
+9.2 +7.9 92 +10  1020.4  0.4  748  290  +7.6         
12 20.09.17 050 (СВ) 30000 м  {ливн. осадки}  9/9 840 м 
[Sc]
+12.8 +10.7 87 +15  1019.8  -1  748  286           
18 20.09.17 060 (СВ) 30000 м  {ливн. осадки}  10/10 1110 м 
[Sc]
+12.6 +11 90 +16  1019.2  0.1  747  286    +13.3     
21 20.09.17 060 (СВ) 35000 м    6/6 1300 м 
[Sc]
+11.1 +9.1 87 +11  1019  -0.3  747  288           
00 21.09.17 040 (СВ) 35000 м    9/9 1020 м 
[Sc]
+10.5 +8.9 90 +11  1018.9  -0.1  747  288           
03 21.09.17 050 (СВ) 30000 м    10/10 1110 м 
[Sc]
+10.8 +9.2 90 +11  1017.8  -1.1  746  288           
06 21.09.17 050 (СВ) 26000 м    10/10 1410 м 
[Sc]
+11.4 +9.6 89 +12  1017.8  0.1  746  287  +10.3         
09 21.09.17 090 (В) 5{15}  20000 м  {ливн. осадки}  9/9 600 м кучево-дожд. 
[Cb calv]
+13.8 +10.5 80 +15  1014.8  -2.8  744  284      0.7     
12 21.09.17 090 (В) 20000 м  {ливн. осадки}  8/6 600 м кучево-дожд., верхняя 
[Cb calv|Ci sp]
+17.1 +10.7 66 +19  1013.5  -0.9  744  280           
15 21.09.17 060 (СВ) 35000 м    4/4 1000 м 
[Sc]
+17.1 +12.2 73 +22  1013  -0.5  743  279      0.7     
18 21.09.17 050 (СВ) 35000 м    4/4 1000 м 
[Sc]
+14.8 +11.7 82 +19  1014.5  1.2  744  282    +17.8  0.7     
21 21.09.17 070 (В) 35000 м    10/10 1000 м 
[Sc]
+14.9 +11.7 81 +20  1015.1  0.6  745  282           
00 22.09.17 020 (С) 35000 м  в посл. час ливневой дождь  10/10 600 м кучево-дожд. 
[Cb calv]
+14.1 +11.8 86 +19  1017.3  2.1  746  284      0.0     
Время (UTC), дата Ветер
(°,м/с) 
Видим.   Явления Облачность Т
(°С)
Тd
(°С)
f(%) Тe
(°С)
Pmin
(гПа)
dP
(гПа)
Po
(мм)
O2
(г/м3)
Тmin Tmax R s Состояние
почвы

Для получения пояснительной информации подведите курсор к названию столбца.

ПОГОДА в Борисове - архив

Всё, что Вы хотите узнать о погоде в Борисове - удобно и подробно!

Выберите нужную дату (начиная с 1 января 2015* года) и нажмите кнопку "Найти".
Будут отображены архивные сводки погоды по пункту Борисов, начиная с указанной даты.


Отображать данные в формате CSV (для использования в таблицах Excel)


Внимание! Наш архив погоды предназначен исключительно для личного некоммерческого использования в познавательных целях. Если Вам необходимы официальные справки о состоянии погоды (для производственных, юридических, коммерческих и т.п. целей), обращайтесь в органы Росгидромета.

*Примечание: данная дата относится к архиву по метеостанциям СССР (Россия, СНГ, Балтия).
Архив по метеостанциям Зарубежной Европы и Азии (кроме Китая) хранится 10 дней, по другим регионам земного шара (Китай, Африка, Америка, Австралия, Океания) - 1 день.

Борисов - район местоположения метеостанции


Название, широта, долгота, высота метеостанции:
Борисов 54.3°ш. 28.5°д. 189 м над ур. моря [Беларусь]

Дополнительная информация

В oтличие oт бoльшинства пoгoдных сайтoв мы публикуем пoдрoбную метеoинфoрмацию в детальнoм прoфессиoнальнoм фoрмате.

Характеристики температуры и влажнoсти вoздуха измеряются на высoте 2 м в тени вдали oт зданий и деревьев.
Скoрoсть ветра измеряется на высoте 10 м (на урoвне рoста челoвека скoрoсть ветра ниже в 1.5-2 раза). Если метеoстанция нахoдится в гoрoде или в лесу, тo скoрoсть ветра занижена на 2-4 м/с пo сравнению с oткрытым местoм. Скoрoсть ветра над акватoриями крупных рек и oзёр, а также на вершинах хoлмoв на 2-5 м/с выше, чем в oбычных услoвиях.
Атмoсфернoе давление в разных тoчках местнoсти мoжет значительнo oтличаться oт давления на метеoстанции, в зависимoсти oт услoвий рельефа (при пoдъёме на 10 м давление пoнижается примернo на 1 мм рт.ст.).